Location: Hamayl? Da??
(36.7028°N, 30.1716°E)
Time: 13:47:52
(UTC+00:00)

Explorer 7 - All Passes

Search period start: 02 November 2024 00:00
Search period end: 12 November 2024 00:00
Orbit: 458 x 603 km, 50.3° (Epoch: 01 November)

Date Brightness Start Highest point End Pass type
(mag) Time Alt. Az. Time Alt. Az. Time Alt. Az.
02 Nov - 03:45:12 10° S 03:48:02 18° SE 03:50:57 10° E visible
02 Nov - 05:22:54 10° WSW 05:27:03 63° NW 05:31:25 10° NE daylight
02 Nov - 07:04:05 10° WNW 07:07:12 19° NNW 07:10:23 10° NNE daylight
02 Nov - 08:45:40 10° NNW 08:48:03 14° N 08:50:26 10° NE daylight
02 Nov - 10:24:58 10° NNW 10:28:44 26° NNE 10:32:28 10° E daylight
02 Nov - 12:04:04 10° NW 12:08:33 73° SW 12:12:55 10° SE daylight
03 Nov - 03:32:53 10° S 03:36:06 22° SE 03:39:27 10° ENE visible
03 Nov - 05:11:10 10° WSW 05:15:15 52° NNW 05:19:32 10° NE daylight
03 Nov - 06:52:34 10° WNW 06:55:29 17° NNW 06:58:29 10° NNE daylight
03 Nov - 08:33:55 10° NNW 08:36:22 14° N 08:38:49 10° NE daylight
03 Nov - 10:13:03 10° NW 10:16:58 29° NNE 10:20:51 10° E daylight
03 Nov - 11:52:15 10° WNW 11:56:40 59° SW 12:00:58 10° SE daylight
04 Nov - 03:20:40 10° S 03:24:08 28° SE 03:27:46 10° ENE visible
04 Nov - 04:59:25 10° WSW 05:03:24 43° NNW 05:07:35 10° NE daylight
04 Nov - 06:41:00 10° NW 06:43:45 16° NNW 06:46:33 10° NNE daylight
04 Nov - 08:22:04 10° NNW 08:24:37 15° N 08:27:12 10° NE daylight
04 Nov - 10:01:05 10° NW 10:05:09 33° NNE 10:09:11 10° E daylight
04 Nov - 11:40:25 10° WNW 11:44:43 47° SW 11:48:56 10° SSE daylight
05 Nov - 03:08:28 10° SSW 03:12:09 34° SE 03:16:00 10° ENE visible
05 Nov - 04:47:39 10° W 04:51:32 37° NNW 04:55:35 10° NE daylight
05 Nov - 06:29:23 10° NW 06:31:57 15° N 06:34:34 10° NNE daylight
05 Nov - 08:10:10 10° NNW 08:12:50 15° N 08:15:31 10° NE daylight
05 Nov - 09:49:05 10° NW 09:53:15 38° NNE 09:57:25 10° E daylight
05 Nov - 11:28:34 10° WNW 11:32:43 38° SW 11:36:48 10° SSE daylight
06 Nov - 02:56:18 10° SSW 03:00:07 43° SE 03:04:08 10° ENE visible
06 Nov - 04:35:53 10° W 04:39:37 32° NNW 04:43:31 10° NE daylight
06 Nov - 06:17:43 10° NW 06:20:07 14° N 06:22:34 10° NNE daylight
06 Nov - 07:58:10 10° NNW 08:00:59 16° NNE 08:03:50 10° NE daylight
06 Nov - 09:37:02 10° NW 09:41:19 44° NNE 09:45:35 10° ESE daylight
06 Nov - 11:16:43 10° WNW 11:20:39 31° SW 11:24:33 10° SSE daylight
07 Nov - 02:44:09 10° SW 02:48:03 54° SE 02:52:10 10° ENE visible
07 Nov - 04:24:05 10° W 04:27:40 28° NNW 04:31:24 10° NE daylight
07 Nov - 06:05:59 10° NW 06:08:15 14° N 06:10:34 10° NNE daylight
07 Nov - 07:46:07 10° NNW 07:49:06 17° NNE 07:52:06 10° ENE daylight
07 Nov - 09:24:58 10° NW 09:29:19 52° NE 09:33:40 10° ESE daylight
07 Nov - 11:04:52 10° WNW 11:08:32 25° SW 11:12:10 10° S daylight
08 Nov - 02:32:00 10° SW 02:35:58 68° SE 02:40:08 10° NE visible
08 Nov - 04:12:16 10° W 04:15:42 24° NNW 04:19:15 10° NNE daylight
08 Nov - 05:54:10 10° NNW 05:56:20 13° N 05:58:32 10° NNE daylight
08 Nov - 07:34:00 10° NNW 07:37:08 19° NNE 07:40:19 10° ENE daylight
08 Nov - 09:12:50 10° NW 09:17:15 62° NE 09:21:40 10° ESE daylight
08 Nov - 10:53:04 10° W 10:56:22 20° SW 10:59:39 10° S daylight
09 Nov - 02:19:52 10° SW 02:23:49 85° SE 02:28:01 10° NE visible
09 Nov - 04:00:26 10° WNW 04:03:41 22° NNW 04:07:02 10° NNE visible
09 Nov - 05:42:17 10° NNW 05:44:23 13° N 05:46:30 10° NNE daylight
09 Nov - 07:21:49 10° NNW 07:25:07 20° NNE 07:28:28 10° ENE daylight
09 Nov - 09:00:41 10° NW 09:05:08 74° NE 09:09:35 10° ESE daylight
09 Nov - 10:41:19 10° W 10:44:08 17° SW 10:46:57 10° SSW daylight
10 Nov - 00:31:09 10° SSE 00:32:51 13° SE 00:34:37 10° E night (unlit)
10 Nov - 02:07:43 10° SW 02:11:40 79° NW 02:15:50 10° NE visible
10 Nov - 03:48:35 10° WNW 03:51:37 20° NNW 03:54:47 10° NNE visible
10 Nov - 05:30:18 10° NNW 05:32:22 13° N 05:34:28 10° NNE daylight
10 Nov - 07:09:35 10° NNW 07:13:03 22° NNE 07:16:34 10° ENE daylight
10 Nov - 08:48:30 10° NW 08:52:57 89° NE 08:57:25 10° SE daylight
10 Nov - 10:29:43 10° W 10:31:51 13° SW 10:33:58 10° SSW daylight
11 Nov - 00:18:10 10° SSE 00:20:33 16° SE 00:23:00 10° E night (unlit)
11 Nov - 01:55:35 10° WSW 01:59:28 64° NW 02:03:36 10° NE visible
11 Nov - 03:36:41 10° WNW 03:39:32 18° NNW 03:42:28 10° NNE visible
11 Nov - 05:18:13 10° NNW 05:20:19 13° N 05:22:25 10° NNE daylight
11 Nov - 06:57:18 10° NNW 07:00:56 25° NNE 07:04:36 10° E daylight
11 Nov - 08:36:17 10° NW 08:40:42 76° SW 08:45:09 10° SE daylight
11 Nov - 10:18:45 10° WSW 10:19:31 10° SW 10:20:16 10° SW daylight
